OSCAR 7 (AO-7) 1 07530U 74089B 25341.29793994 -.00000042 00000+0 30342-4 0 9992 2 07530 101.9966 347.5085 0012339 136.8663 235.1433 12.53694048336478 PHASE 3B (AO-10) 1 14129U 83058B 25341.05628832 -.00000065 00000+0 00000+0 0 9990 2 14129 26.0709 252.1579 6065478 62.0400 345.7854 2.05871525291533 UOSAT 2 (UO-11) 1 14781U 84021B 25341.21994977 .00002643 00000+0 27882-3 0 9993 2 14781 97.7807 304.3342 0009234 97.2323 262.9945 14.90112709228535 LUSAT (LO-19) 1 20442U 90005G 25341.31338346 .00000313 00000+0 12869-3 0 9997 2 20442 98.8962 352.7256 0012384 52.2783 307.9521 14.34041272874892 EYESAT A (AO-27) 1 22825U 93061C 25341.12475967 .00000275 00000+0 12183-3 0 9995 2 22825 98.7154 43.3785 0007493 308.2883 51.7625 14.30873596679532 ITAMSAT (IO-26) 1 22826U 93061D 25341.16100753 .00000303 00000+0 13161-3 0 9997 2 22826 98.7101 43.3137 0007863 289.7466 70.2868 14.31294161679842 RADIO ROSTO (RS-15) 1 23439U 94085A 25341.28147925 -.00000012 00000+0 86209-3 0 9991 2 23439 64.8166 253.5768 0149581 39.5041 321.6675 11.27582570274269 JAS-2 (FO-29) 1 24278U 96046B 25341.07986599 .00000035 00000+0 73558-4 0 9995 2 24278 98.5467 210.9748 0349001 234.6898 122.1144 13.53262392447187 TECHSAT 1B (GO-32) 1 25397U 98043D 25341.22761564 .00000193 00000+0 10380-3 0 9995 2 25397 98.9914 324.3126 0002185 66.2353 293.9054 14.24374707424001 ISS (ZARYA) 1 25544U 98067A 25341.18792727 .00013419 00000+0 24796-3 0 9996 2 25544 51.6302 169.9669 0003495 214.2568 145.8196 15.49384117541999 PCSAT (NO-44) 1 26931U 01043C 25341.07831587 .00000376 00000+0 17129-3 0 9991 2 26931 67.0518 21.1197 0007408 270.2749 89.7504 14.31850046262949 SAUDISAT 1C (SO-50) 1 27607U 02058C 25341.07111585 .00003254 00000+0 40586-3 0 9999 2 27607 64.5544 3.1188 0071942 297.6413 61.7401 14.82353094235972 CUTE-1 (CO-55) 1 27844U 03031E 25340.96954269 .00000676 00000+0 31252-3 0 9990 2 27844 98.6763 346.9469 0010079 29.5125 330.6621 14.24171667164313 CUBESAT XI-IV (CO-57) 1 27848U 03031J 25341.28470645 .00000576 00000+0 27271-3 0 9996 2 27848 98.6796 347.1246 0010263 45.6126 314.5891 14.23481305164079 MOZHAETS 4 (RS-22) 1 27939U 03042A 25341.28760825 .00002664 00000+0 42317-3 0 9999 2 27939 98.3367 155.3432 0011817 152.2009 332.6417 14.72947527187299 CUBESAT XI-V 1 28895U 05043F 25341.13913739 .00003443 00000+0 55754-3 0 9997 2 28895 98.2722 128.1224 0015415 94.8095 265.4872 14.71865639 73492 CUTE-1.7+APD II (CO-65) 1 32785U 08021C 25341.26043659 .00010096 00000+0 67864-3 0 9995 2 32785 97.8088 314.2711 0008437 333.1834 26.8956 15.06942764956261 SEEDS II (CO-66) 1 32791U 08021J 25340.93294875 .00026249 00000+0 10536-2 0 9993 2 32791 97.7438 325.8794 0000931 275.6609 84.4522 15.24956151957913 YUBILEINY (RS-30) 1 32953U 08025A 25341.23804545 .00000019 00000+0 67857-4 0 9999 2 32953 82.5013 114.8445 0019140 13.0181 347.1389 12.43171788795849 KKS-1 (KISEKI) 1 33499U 09002H 25341.20719904 .00003335 00000+0 42296-3 0 9995 2 33499 98.1175 255.7226 0007634 182.1950 177.9231 14.82401502907740 SWISSCUBE 1 35932U 09051B 25340.67948387 .00002877 00000+0 58418-3 0 9995 2 35932 98.4144 240.1508 0008083 90.0703 270.1423 14.61930298861021 BEESAT-1 1 35933U 09051C 25341.20982890 .00002294 00000+0 47480-3 0 9993 2 35933 98.4074 240.7130 0006496 99.8835 260.3099 14.61257117861145 ITUPSAT1 1 35935U 09051E 25341.17172418 .00001974 00000+0 42118-3 0 9995 2 35935 98.4167 240.0585 0008547 109.9237 250.2884 14.60013236860718 XIWANG-1 (HOPE-1) 1 36122U 09072B 25341.26967852 -.00000017 00000+0 70588-4 0 9992 2 36122 100.3769 293.4111 0007128 316.1397 43.9149 13.16432344767754 O/OREOS (USA 219) 1 37224U 10062C 25341.19803724 .00004678 00000+0 45899-3 0 9998 2 37224 71.9691 154.8919 0012871 69.6576 290.5975 14.92625894 87987 JUGNU 1 37839U 11058B 25341.31576558 .00000649 00000+0 19907-3 0 9997 2 37839 19.9619 34.0462 0018731 116.9673 306.4785 14.13693203731847 SRMSAT 1 37841U 11058D 25341.17103722 .00000533 00000+0 14552-3 0 9996 2 37841 19.9699 141.6553 0011709 251.5973 264.6047 14.11508539730650 STRAND-1 1 39090U 13009E 25341.23849968 .00000735 00000+0 26232-3 0 9990 2 39090 98.3824 161.2709 0009785 85.4298 274.8007 14.36997882669497 ZACUBE-1 (TSHEPISOSAT) 1 39417U 13066B 25340.85104808 .00008434 00000+0 68827-3 0 9990 2 39417 97.8074 297.3865 0041567 165.7322 194.5085 14.99001759651896 GOMX-1 1 39430U 13066Q 25341.24656327 .00004056 00000+0 62242-3 0 9998 2 39430 97.6593 188.7157 0130060 334.2952 25.1826 14.68544099641730 CUBEBUG-2 (LO-74) 1 39440U 13066AA 25341.30660685 .00008849 00000+0 85243-3 0 9998 2 39440 97.8704 284.9849 0058562 304.2414 55.3265 14.91879779648360 FUNCUBE-1 (AO-73) 1 39444U 13066AE 25340.87402311 .00013472 00000+0 91562-3 0 9992 2 39444 97.8053 304.0814 0040280 134.8342 225.6170 15.05808706650685 UWE-3 1 39446U 13066AG 25340.79786437 .00008641 00000+0 77604-3 0 9992 2 39446 97.8466 291.1439 0049543 239.9506 119.6796 14.95009762648815 UNISAT-6 1 40012U 14033C 25341.29501853 .00005874 00000+0 65344-3 0 9994 2 40012 97.7617 132.8757 0045943 342.2107 17.7498 14.86744128617637 DUCHIFAT-1 1 40021U 14033M 25341.05870777 .00052074 00000+0 12983-2 0 9996 2 40021 98.0787 12.2830 0007938 52.1202 308.0759 15.40014632625970 QB50P1 1 40025U 14033R 25340.93734872 .00015664 00000+0 85768-3 0 9997 2 40025 98.0961 334.1649 0009920 152.9268 207.2481 15.14288974623890 LILACSAT-2 1 40908U 15049K 25341.22956322 .00022513 00000+0 48683-3 0 9990 2 40908 97.4912 6.4426 0006708 219.9833 140.0922 15.44480337566052 FOX-1A (AO-85) 1 40967U 15058D 25341.10204532 .00006734 00000+0 60614-3 0 9996 2 40967 64.7739 155.3311 0135592 132.1815 229.0906 14.89580434 84948 CAS-2T & KS-1Q 1 41847U 16066G 25341.14962490 .00001849 00000+0 26972-3 0 9993 2 41847 98.4040 53.9442 0343658 352.1132 7.4735 14.44111305477079 RADFXSAT (FOX-1B) 1 43017U 17073E 25341.07374872 .00016158 00000+0 76629-3 0 9999 2 43017 97.4943 207.3986 0159873 270.0825 88.2085 15.08677541436384 DIWATA-2B 1 43678U 18084H 25341.24662683 .00004329 00000+0 35865-3 0 9998 2 43678 98.1022 164.4889 0007526 59.6296 300.5669 14.99392140387446 ES'HAIL 2 1 43700U 18090A 25341.28786019 .00000149 00000+0 00000+0 0 9990 2 43700 0.0152 44.5772 0001513 224.4533 296.7409 1.00274354 25758 FOX-1CLIFF (AO-95) 1 43770U 18099N 25340.87498948 .00018021 00000+0 79791-3 0 9996 2 43770 97.4683 37.2017 0008556 309.8112 50.2370 15.21674112383920 ITASAT 1 43786U 18099AE 25341.08752873 .00012341 00000+0 64535-3 0 9996 2 43786 97.4328 31.5170 0012152 305.4752 54.5346 15.15940582383772 JY1SAT (JO-97) 1 43803U 18099AX 25340.72012307 .00027274 00000+0 10427-2 0 9998 2 43803 97.4424 38.5564 0005627 226.1365 133.9410 15.26557427384196 UWE-4 1 43880U 18111E 25341.02419098 .00034561 00000+0 10487-2 0 9993 2 43880 97.5858 257.3915 0007930 304.8558 55.1938 15.33996217381202 DUCHIFAT-3 1 44854U 19089C 25337.20011490 .01105376 61298-3 19590-2 0 9997 2 44854 36.9264 289.0060 0011658 216.1192 143.8795 16.00863037330619 TIANYAN 01 1 44881U 19093C 25341.24664626 .00001846 00000+0 21661-3 0 9995 2 44881 97.7765 53.0011 0013703 4.4248 355.7086 14.86084701322903 RS-44 & BREEZE-KM R/B 1 44909U 19096E 25341.30683482 .00000019 00000+0 36771-4 0 9997 2 44909 82.5204 107.2185 0216852 232.8281 125.2847 12.79745875277801 SALSAT 1 46495U 20068K 25341.22116424 .00012855 00000+0 49942-3 0 9992 2 46495 97.8780 328.1960 0008671 252.6391 107.3898 15.26181604286048 XW-3 (CAS-9) 1 50466U 21131B 25341.30391708 .00001184 00000+0 38145-3 0 9992 2 50466 98.5061 69.7530 0003348 326.3353 33.7623 14.41101388207470 GREENCUBE (IO-117) 1 53109U 22080E 25339.41693315 -.00000003 00000+0 00000+0 0 9996 2 53109 70.1582 5.6280 0008843 329.0635 30.9503 6.42583207 79615 STRATOSAT-TK 1 (RS52S) 1 57167U 23091B 25341.26448552 .00302587 00000+0 21086-2 0 9995 2 57167 97.5222 53.2596 0003990 343.1639 16.9491 15.73459261136019 UMKA 1 (RS40S) 1 57172U 23091G 25341.27142241 .00010076 00000+0 49636-3 0 9999 2 57172 97.5344 35.7600 0015019 70.7043 289.5814 15.18059211134866 CUBESX-HSE 3 (RS42S) 1 57178U 23091N 25341.30200375 .00020308 00000+0 79957-3 0 9990 2 57178 97.5378 39.9489 0013252 54.6078 305.6396 15.25571352135113 MONITOR-3 (RS58S) 1 57180U 23091Q 25341.29418461 .00017003 00000+0 71821-3 0 9998 2 57180 97.5371 38.6613 0014161 58.4301 301.8316 15.23233046135039 MONITOR-4 (RS57S) 1 57182U 23091S 25341.28388599 .00016793 00000+0 70792-3 0 9998 2 57182 97.5366 38.6116 0014187 58.9590 301.3037 15.23302938135038 MONITOR-2 (RS39S) 1 57184U 23091U 25341.27824967 .00008824 00000+0 45345-3 0 9995 2 57184 97.5371 35.7845 0013195 63.3838 296.8745 15.16638256134845 SVYATOBOR 1 (RS60S) 1 57187U 23091X 25341.30125985 .00014935 00000+0 64332-3 0 9993 2 57187 97.5378 39.2961 0011362 51.8889 308.3370 15.22629945135076 VIZARD-METEO (RS38S) 1 57189U 23091Z 25341.27497150 .00023509 00000+0 83191-3 0 9998 2 57189 97.5367 42.6062 0009144 40.9154 319.2771 15.29113211135296 NANOZOND 1 (RS49S) 1 57190U 23091AA 25341.26890247 .00087293 00000+0 14261-2 0 9994 2 57190 97.5294 50.8703 0004664 20.3131 339.8306 15.52240333135855 POLYTECH-UNIVERSE 3 (R*) 1 57191U 23091AB 25341.26288880 .00008664 00000+0 44245-3 0 9990 2 57191 97.5342 35.2836 0017816 77.8683 282.4545 15.16802236134837 UTMN 2 (RS27S) 1 57203U 23091AP 25341.30008089 .00019269 00000+0 73839-3 0 9994 2 57203 97.5371 41.3390 0010020 44.5406 315.6637 15.26521730135212 KUZGTU 1 (RS47S) 1 57217U 23091AV 25341.28227327 .00018300 00000+0 74044-3 0 9998 2 57217 97.5351 39.2220 0013458 57.0309 303.2220 15.24677239135082 SONATE-2 1 59112U 24043Q 25340.95287712 .00038342 00000+0 82168-3 0 9993 2 59112 97.5332 116.9902 0008953 182.7786 177.3414 15.44619271 98083 MESAT1 1 60209U 24125G 25340.83363316 .00048625 00000+0 99983-3 0 9993 2 60209 97.2522 191.2032 0013728 200.8099 159.2593 15.45723981 79693 OOV-CUBE (TUBSAT-30) 1 60240U 24128F 25340.88673663 .00004667 00000+0 36151-3 0 9991 2 60240 61.9934 175.5555 0058591 93.1050 267.6747 15.01552445 77224 COLIBRI-S (RS67S) 1 61746U 24199M 25341.29226599 .00028314 00000+0 73321-3 0 9994 2 61746 97.3259 209.2242 0008268 255.6062 104.4266 15.38983435107811 HORS 3 (RS81S) 1 61753U 24199U 25341.29903462 .00037356 00000+0 86887-3 0 9990 2 61753 97.3229 209.8140 0006278 263.8081 96.2451 15.42203965107867 HORS 4 (RS82S) 1 61754U 24199V 25341.30496758 .00043346 00000+0 95148-3 0 9994 2 61754 97.3212 210.2339 0006381 261.8482 98.2042 15.43901781107897 HORIZON (RS59S) 1 61757U 24199Y 25341.26963531 .00078500 00000+0 12577-2 0 9994 2 61757 97.3221 212.2183 0005340 240.4380 119.6341 15.52815502108013 ARCTICSAT 1 (RS74S) 1 61762U 24199AD 25341.26064737 .00069300 00000+0 11690-2 0 9993 2 61762 97.3225 212.0742 0005448 234.8170 125.2573 15.51410628108003 SIT-2086 1 61764U 24199AF 25341.30287371 .00028191 00000+0 65366-3 0 9994 2 61764 97.3228 210.5707 0006131 250.6216 109.4369 15.42356330104753 MORDOVIA-IOT (RS50S) 1 61765U 24199AG 25341.28899914 .00184112 00000+0 16735-2 0 9995 2 61765 97.3136 214.6655 0002760 198.2503 161.8660 15.67387851105036 RUZAEVKA 390 (RS44S) 1 61766U 24199AH 25341.30207035 .00116096 00000+0 13942-2 0 9999 2 61766 97.3172 213.7415 0003298 219.3052 140.7966 15.60492369104973 HYPERVIEW 1G (RS66S) 1 61772U 24199AP 25341.24650994 .00057269 00000+0 11199-2 0 9993 2 61772 97.3211 210.6147 0008054 263.3470 96.6864 15.47217360104764 ALTAIR (RS65S) 1 61779U 24199AW 25341.25602258 .00015765 00000+0 50135-3 0 9990 2 61779 97.3260 207.0999 0012454 276.9622 83.0204 15.32617102107671 ASRTU-1 (AO-123) 1 61781U 24199AY 25341.25087688 .00016535 00000+0 53953-3 0 9994 2 61781 97.3250 206.7613 0012984 278.1135 81.8634 15.31775491104500 TUSUR GO (RS78S) 1 61782U 24199AZ 25341.26777213 .00081243 00000+0 13352-2 0 9992 2 61782 97.3181 211.3167 0006876 261.7680 98.2793 15.52083519104814 SAMSAT-IONOSPHERE (RS7*) 1 61784U 24199BB 25341.29982521 .00041240 00000+0 94816-3 0 9995 2 61784 97.3225 209.5208 0009867 267.8707 92.1411 15.42500415107844 RTU MIREA 1 (RS51S) 1 61785U 24199BC 25341.25606527 .00044951 00000+0 99528-3 0 9998 2 61785 97.3222 209.7216 0009489 265.7027 94.3137 15.43610065104700 HADES-R 1 62690U 25009CK 25341.17842476 .00207220 00000+0 28330-2 0 9993 2 62690 97.3887 63.5935 0001473 233.6870 126.4249 15.56722895 49913 TEVEL2-4 1 63213U 25052D 25340.62151249 .00029929 00000+0 11367-2 0 9993 2 63213 97.4108 232.4940 0005296 74.9279 285.2546 15.26757838 40659 TEVEL2-5 1 63214U 25052E 25341.15102111 .00026157 00000+0 99561-3 0 9990 2 63214 97.4100 233.0078 0005159 74.4589 285.7219 15.26712673 40737 TEVEL2-6 1 63215U 25052F 25340.96152014 .00026051 00000+0 99333-3 0 9996 2 63215 97.4106 232.8083 0005401 75.1047 285.0789 15.26654396 40703 TEVEL2-1 1 63217U 25052H 25340.67518121 .00029775 00000+0 11459-2 0 9999 2 63217 97.4083 232.3400 0005399 84.0441 276.1413 15.26319716 40653 TEVEL2-3 1 63218U 25052J 25341.13337464 .00026394 00000+0 10152-2 0 9994 2 63218 97.4082 232.7997 0005413 83.8465 276.3390 15.26361423 40724 TEVEL2-2 1 63219U 25052K 25341.13486773 .00025913 00000+0 99744-3 0 9994 2 63219 97.4079 232.7964 0005386 84.2802 275.9051 15.26341636 40727 TEVEL2-9 1 63237U 25052AD 25341.15805294 .00024405 00000+0 98150-3 0 9994 2 63237 97.4142 232.5338 0009225 97.0400 263.1887 15.24862482 40690 TEVEL2-7 1 63238U 25052AE 25340.97453589 .00024031 00000+0 97107-3 0 9996 2 63238 97.4148 232.3273 0009305 97.5140 262.7155 15.24705518 40664 TEVEL2-8 1 63239U 25052AF 25340.65192583 .00027107 00000+0 10959-2 0 9992 2 63239 97.4145 231.9929 0009241 99.3572 260.8711 15.24663872 40611 HADES-ICM 1 63492U 25052BN 25341.16984549 .00085533 00000+0 22264-2 0 9990 2 63492 97.4073 234.6212 0011746 88.7634 271.4957 15.38502947 40846 INNOSAT 16 (RS92S7) 1 64878U 25155C 25341.29715837 .00006901 00000+0 29858-3 0 9998 2 64878 97.4331 304.7276 0012452 133.8357 226.3911 15.22684887 51444 GEOSCAN 6 (RS92S6) 1 64879U 25155D 25341.29641874 .00017177 00000+0 68220-3 0 9991 2 64879 97.4334 305.0519 0010136 126.2354 233.9822 15.25348134 51464 GEOSCAN 1 (RS92S1) 1 64880U 25155E 25341.28708168 .00018768 00000+0 73933-3 0 9996 2 64880 97.4335 305.0698 0010044 126.5677 233.6487 15.25604247 51468 239ALFEROV (RS61S) 1 64881U 25155F 25341.25156195 .00022128 00000+0 84974-3 0 9993 2 64881 97.4345 305.1368 0009812 126.0889 234.1259 15.26421735 51469 GEOSCAN 2 (RS92S2) 1 64890U 25155Q 25341.25286297 .00018162 00000+0 70873-3 0 9996 2 64890 97.4332 305.1041 0009628 115.3253 244.8984 15.25930466 51462 GEOSCAN 5 (RS92S5) 1 64891U 25155R 25341.28276694 .00021107 00000+0 80225-3 0 9995 2 64891 97.4337 305.2264 0008414 129.5739 230.6244 15.26785370 51470 GEOSCAN 4 (RS92S4) 1 64892U 25155S 25341.28010952 .00022196 00000+0 84157-3 0 9996 2 64892 97.4339 305.2333 0008424 130.4026 229.7950 15.26855495 51470 GEOSCAN 3 (RS92S3) 1 64893U 25155T 25341.25253155 .00027132 00000+0 10062-2 0 9996 2 64893 97.4336 305.2645 0008146 131.4490 228.7450 15.27548845 51474 INNOSAT 3 (RS92S0) 1 64894U 25155U 25341.23898951 .00040234 00000+0 13863-2 0 9994 2 64894 97.4322 305.4253 0007912 129.4287 230.7655 15.29876478 51487